| time (UTC) | temp F | wind direction | speed MPH | gust MPH | rain 1hr in | rain 24hr in | rain mn in | humidity % | barometer mb |
| 20260503024529 | 59 | 132 | 0.0 | 0.0 | 0.00 | 0.07 | 0.07 | 53 | 1016.9 |
| 20260503023050 | 61 | 136 | 0.0 | 0.0 | 0.00 | 0.07 | 0.07 | 51 | 1016.8 |
| 20260503021549 | 61 | 136 | 0.0 | 0.0 | 0.00 | 0.07 | 0.07 | 49 | 1016.7 |
| 20260503020046 | 62 | 136 | 0.0 | 0.0 | 0.00 | 0.07 | 0.07 | 47 | 1016.6 |
| 20260503014545 | 63 | 136 | 0.0 | 0.0 | 0.00 | 0.07 | 0.07 | 46 | 1016.5 |
| 20260503013052 | 63 | 136 | 0.0 | 0.0 | 0.00 | 0.07 | 0.07 | 45 | 1016.5 |
| 20260503011554 | 64 | 137 | 0.0 | 0.0 | 0.00 | 0.07 | 0.07 | 45 | 1016.5 |
| 20260503010114 | 66 | 325 | 0.0 | 0.0 | 0.00 | 0.07 | 0.07 | 41 | 1016.5 |
| 20260503004544 | 67 | 325 | 0.0 | 0.0 | 0.00 | 0.07 | 0.07 | 37 | 1016.5 |
| 20260503003043 | 67 | 325 | 0.0 | 0.0 | 0.00 | 0.07 | 0.07 | 34 | 1016.5 |
| 20260503001541 | 68 | 325 | 0.0 | 0.0 | 0.00 | 0.07 | 0.07 | 34 | 1016.5 |
| 20260503000039 | 68 | 303 | 0.0 | 0.0 | 0.00 | 0.07 | 0.07 | 34 | 1016.6 |
| 20260502234540 | 68 | 303 | 0.0 | 0.0 | 0.00 | 0.07 | 0.07 | 34 | 1016.7 |
| 20260502233037 | 68 | 301 | 0.0 | 0.0 | 0.00 | 0.07 | 0.07 | 34 | 1016.8 |
| 20260502231536 | 68 | 175 | 0.0 | 0.0 | 0.00 | 0.07 | 0.07 | 35 | 1016.9 |
| 20260502230034 | 69 | 151 | 2.0 | 7.0 | 0.00 | 0.07 | 0.07 | 38 | 1016.9 |
| 20260502224534 | 70 | 334 | 0.0 | 0.0 | 0.00 | 0.07 | 0.07 | 35 | 1017.0 |
| 20260502223033 | 70 | 337 | 0.0 | 0.0 | 0.00 | 0.07 | 0.07 | 34 | 1017.0 |
| 20260502221530 | 70 | 308 | 0.0 | 0.0 | 0.00 | 0.07 | 0.07 | 35 | 1017.1 |
| 20260502220030 | 70 | 126 | 0.0 | 0.0 | 0.00 | 0.07 | 0.07 | 33 | 1017.2 |
| 20260502214536 | 70 | 133 | 0.0 | 0.0 | 0.00 | 0.07 | 0.07 | 37 | 1017.4 |
| 20260502213030 | 69 | 147 | 0.0 | 0.0 | 0.00 | 0.07 | 0.07 | 36 | 1017.5 |
| 20260502211528 | 70 | 32 | 0.0 | 2.0 | 0.00 | 0.07 | 0.07 | 34 | 1017.8 |
| 20260502210029 | 70 | 308 | 0.0 | 0.0 | 0.00 | 0.07 | 0.07 | 35 | 1018.0 |
| 20260502204521 | 69 | 315 | 0.0 | 7.0 | 0.00 | 0.07 | 0.07 | 39 | 1018.1 |
| 20260502121554 | 48 | 146 | 0.0 | 0.0 | 0.00 | 0.07 | 0.07 | 95 | 1018.8 |
| 20260502120107 | 48 | 146 | 0.0 | 0.0 | 0.00 | 0.07 | 0.07 | 95 | 1018.5 |
| 20260502114628 | 48 | 146 | 0.0 | 0.0 | 0.00 | 0.07 | 0.07 | 95 | 1018.3 |
| 20260502113050 | 48 | 146 | 0.0 | 0.0 | 0.00 | 0.07 | 0.07 | 94 | 1018.2 |
| 20260502111551 | 49 | 146 | 0.0 | 0.0 | 0.00 | 0.07 | 0.07 | 94 | 1018.2 |
| 20260502110049 | 49 | 146 | 0.0 | 0.0 | 0.00 | 0.07 | 0.07 | 95 | 1018.1 |
| 20260502104547 | 48 | 146 | 0.0 | 0.0 | 0.00 | 0.07 | 0.07 | 94 | 1018.1 |
| 20260502103046 | 49 | 146 | 0.0 | 0.0 | 0.00 | 0.07 | 0.07 | 94 | 1018.0 |
| 20260502101601 | 49 | 146 | 0.0 | 0.0 | 0.00 | 0.07 | 0.07 | 94 | 1018.0 |
| 20260502054527 | 58 | 100 | 0.0 | 0.0 | 0.00 | 0.00 | 0.00 | 57 | 1017.2 |
| 20260502054505 | 58 | 54 | 0.0 | 0.0 | 0.00 | 0.00 | 0.00 | 57 | 1017.2 |
| 20260502044505 | 56 | 330 | 0.0 | 0.0 | 0.00 | 0.00 | 0.00 | 60 | 1017.1 |